FLOCK 3P'-1

Last updated on Wed Feb 14 2018 16:20:56 GMT+0000 (Coordinated Universal Time)

1 43121U 18004L 18044.74885541 .00000745 00000-0 35728-4 0 9998 2 43121 97.5509 107.0049 0011168 159.0359 201.1337 15.22035236 4862

Satellite not in orbit

FLOCK 3P'-1